Flag for Germany Weather past 2 weeks in Prenzlau, Brandenburg, Germany

Now
63 °F

Sunny.


Feels Like: 63 °F
Forecast: 43 / 57 °F
Wind: No wind

Location: Szczecin Airport

Current Time: May 6, 2015 at 12:29:57 PM

Latest Report: May 6, 2015 at 12:00 PM


Visibility: 10 mi

Pressure: 29.89 "Hg

Humidity: 42%

Dew point: 39 °F

Location of PrenzlauLocation

Historic Weather in Prenzlau — Graph

°F

Prenzlau temperature yesterday

Maximum temperature yesterday: 72 °F (at 7:00 PM)
Minimum temperature yesterday: 57 °F (at 1:00 AM)
Average temperature yesterday: 63 °F

Past Weeks' High & Low Weather Summary

 TemperatureHumidityPressure
High72 °F (Apr 25, 5:30 PM)100% (Apr 24, 5:30 AM)30.24 "Hg (Apr 24, 5:30 AM)
Low32 °F (May 2, 5:30 AM)27% (May 3, 3:00 PM)29.59 "Hg (Apr 27, 11:30 AM)
Average52 °F72%29.87 "Hg
* Reported Apr 21 11:00 AM — May 6 11:30 AM, Prenzlau, Weather by CustomWeather, © 2015

Note: Actual official high and low records may vary slightly from our data, if they occured in-between our weather recording intervals... More about our weather records

Advertising

Prenzlau weather history for previous 24 hours

 ConditionsComfort  
Time TempWeatherWind HumidityBarometerVisibility
11:30 AM
Wed, May 6
61 °FPassing clouds.7 mph52%29.92 "HgN/A
11:00 AM59 °FPassing clouds.5 mph59%29.89 "HgN/A
10:30 AM59 °FSunny.6 mph68%29.89 "Hg10 mi
10:00 AM57 °FPassing clouds.5 mph67%29.89 "HgN/A
9:30 AM55 °FPassing clouds.3 mph72%29.89 "HgN/A
9:00 AM55 °FPassing clouds.5 mph77%29.89 "HgN/A
8:30 AM55 °FPassing clouds.5 mph77%29.89 "HgN/A
8:00 AM54 °FSunny.3 mph82%29.89 "Hg10 mi
7:30 AM52 °FSunny.1 mph94%29.89 "Hg10 mi
7:00 AM48 °FSunny.2 mph94%29.89 "Hg10 mi
6:30 AM46 °FFog.2 mph93%29.89 "HgN/A
6:00 AM46 °FFog.2 mph93%29.86 "HgN/A
5:00 AM48 °FClear.2 mph94%29.86 "Hg10 mi
4:30 AM52 °FClear.No wind94%29.86 "Hg10 mi
4:00 AM54 °FPassing clouds.No wind88%29.83 "HgN/A
3:30 AM54 °FPassing clouds.2 mph88%29.83 "HgN/A
3:00 AM54 °FPassing clouds.5 mph88%29.83 "HgN/A
2:30 AM55 °FPartly cloudy.10 mph82%29.83 "HgN/A
2:00 AM57 °FPartly cloudy.6 mph94%29.80 "HgN/A
1:30 AM57 °FPassing clouds.6 mph94%29.80 "HgN/A
1:00 AM57 °FPassing clouds.3 mph94%29.77 "HgN/A
12:30 AM57 °FPartly cloudy.3 mph94%29.77 "HgN/A
12:00 AM57 °FPartly cloudy.5 mph94%29.77 "HgN/A
11:30 PM
Tue, May 5
57 °FPassing clouds.3 mph94%29.74 "HgN/A
11:00 PM59 °FSprinkles. Partly cloudy.8 mph88%29.74 "HgN/A
10:30 PM61 °FPassing clouds.10 mph83%29.71 "HgN/A
10:00 PM63 °FThundershowers. Partly cloudy.15 mph77%29.71 "Hg4 mi
9:30 PM68 °FSunny.9 mph83%29.62 "Hg10 mi
9:00 PM68 °FSunny.7 mph83%29.62 "Hg10 mi
8:30 PM68 °FSunny.7 mph83%29.62 "Hg10 mi
8:00 PM70 °FSunny.8 mph83%29.62 "Hg10 mi
7:30 PM70 °FSunny.9 mph83%29.59 "Hg10 mi
7:00 PM72 °FSunny.10 mph78%29.59 "Hg10 mi
6:30 PM70 °FSunny.13 mph83%29.59 "Hg10 mi
6:00 PM70 °FSunny.12 mph83%29.62 "Hg10 mi
5:30 PM68 °FClear.7 mph88%29.62 "Hg5 mi
5:00 PM66 °FScattered clouds.6 mph88%29.62 "Hg5 mi
4:30 PM66 °FLight rain. Broken clouds.7 mph88%29.65 "Hg5 mi
4:00 PM66 °FLight rain. Partly sunny.3 mph83%29.65 "Hg5 mi
3:30 PM66 °FLight rain. Partly sunny.8 mph83%29.65 "HgN/A
3:00 PM68 °FLight rain. Partly sunny.12 mph73%29.65 "HgN/A
2:30 PM68 °FLight rain. Clear.14 mph73%29.65 "HgN/A
2:00 PM68 °FSunny.17 mph73%29.65 "Hg10 mi
1:30 PM70 °FSunny.21 mph69%29.65 "Hg10 mi
1:00 PM68 °FSunny.17 mph73%29.65 "Hg10 mi
12:30 PM66 °FLight rain. Scattered clouds.14 mph73%29.68 "HgN/A
12:00 PM66 °FSunny.15 mph68%29.68 "Hg10 mi
Weather by CustomWeather, © 2015

See weather overviewHow to use our weather pages